Location: Peterborough
(44.3091°N, 78.3197°W)
Time: 03:44:28
(UTC-04:00)

Tiros 1 - Pass Details

Date: 08 April 2023
Orbit: 627 x 661 km, 48.4° (Epoch: 09 June)

Event Time Altitude Azimuth Distance (km) Brightness Sun altitude
Rises 05:10:05 0° 288° (WNW) 2,980 - -16.4°
Reaches altitude 10° 05:12:28 10° 292° (WNW) 2,071 - -16.0°
Exits shadow 05:13:05 14° 294° (WNW) 1,841 9.1 -15.9°
Maximum altitude 05:17:12 62° 13° (NNE) 744 7.6 -15.2°
Drops below altitude 10° 05:21:58 10° 95° (E) 2,075 10.7 -14.5°
Sets 05:24:20 0° 99° (E) 2,985 11.6 -14.1°
